GFSWCAN_sfc_dewp_276.txt.gz
Dewpoint
47 49 47 46 46 46 46 46 47 47 48 49 50 51 52 53 54 51 47 48 45 40 41 44 44 41 41 40 37 39 38 39 40 37 37 36 36 36 35 34 32 30 32 31 34 33 32 45 42 40 44 48 49 50
48 48 47 46 46 46 46 46 47 47 47 48 50 50 52 53 53 52 45 48 52 48 43 44 45 45 43 42 41 39 38 38 40 38 40 38 37 38 35 34 39 36 37 38 37 35 41 47 46 47 48 48 49 51
46 47 47 46 46 46 46 46 46 47 47 48 48 50 52 53 53 52 50 48 46 45 43 41 40 44 46 47 44 40 41 41 41 46 41 39 37 40 35 36 37 39 44 40 39 39 43 46 45 46 48 50 51 51
45 46 47 47 45 46 46 46 47 49 49 47 48 50 52 53 53 51 48 50 49 46 42 39 43 43 45 46 46 44 42 43 42 45 41 41 39 41 37 38 38 39 40 38 39 39 38 40 44 47 49 50 51 51
45 46 46 46 45 46 46 47 49 49 50 49 51 51 50 52 52 50 47 50 50 44 41 40 43 43 44 44 44 45 44 41 41 42 43 42 42 42 41 40 38 39 36 36 36 40 41 41 41 45 46 45 48 50
45 46 45 44 44 46 47 48 49 50 50 50 51 51 50 52 51 46 43 49 50 50 45 39 41 42 43 43 42 43 44 42 41 41 41 43 43 43 41 38 38 39 40 40 41 43 43 43 45 45 43 43 45 48
46 45 45 45 46 48 48 49 50 50 51 52 52 51 51 52 48 43 42 49 52 52 45 39 37 39 41 44 45 45 44 43 43 42 41 41 41 46 43 38 39 39 41 44 43 43 41 43 42 44 46 47 49 51
46 46 46 47 48 48 49 50 50 51 51 52 52 52 51 50 49 46 46 50 52 49 47 41 37 37 42 41 41 43 42 42 42 42 45 44 43 44 41 40 43 45 46 47 46 47 46 46 47 46 46 48 49 50
47 47 47 48 49 49 50 50 51 51 50 50 51 50 48 47 45 48 54 52 53 50 44 43 37 32 41 41 41 41 42 38 42 41 42 44 42 40 41 43 43 44 45 45 46 47 48 48 47 47 48 48 48 49
47 47 48 48 49 50 50 51 51 50 50 50 48 45 47 50 54 53 48 48 48 49 47 42 41 37 40 39 39 39 42 38 35 39 43 42 39 41 44 44 45 46 47 47 46 46 46 45 46 48 49 49 50 50
47 47 48 48 49 50 50 51 51 50 50 46 47 48 51 54 48 48 46 44 43 42 43 41 40 37 41 37 38 43 38 41 37 39 39 39 40 43 45 44 45 48 49 49 49 49 49 48 48 49 50 51 50 50
47 48 48 49 49 50 50 50 50 47 46 46 46 46 46 46 46 44 43 44 42 37 40 39 39 40 40 42 44 43 40 41 35 43 38 37 40 44 43 45 47 49 51 51 51 51 51 52 51 52 52 51 50 51
48 48 49 49 50 50 50 50 50 50 50 48 45 46 46 44 39 39 33 36 37 39 41 41 40 42 44 43 43 41 39 37 42 38 36 41 42 42 44 47 49 51 52 51 51 50 51 52 52 53 51 52 52 52
48 49 49 50 50 50 51 51 50 49 45 42 42 36 41 38 38 38 38 38 41 41 41 42 43 41 41 41 40 37 38 41 36 34 34 40 42 43 45 48 50 50 51 51 51 51 51 51 52 53 52 51 51 52
49 49 50 50 51 51 50 50 50 48 43 41 41 37 39 40 41 43 43 43 44 42 41 34 36 40 38 37 39 38 38 34 35 34 35 41 43 44 45 48 49 50 51 51 51 51 51 52 53 53 53 52 52 52
49 49 49 50 50 50 50 50 48 45 44 43 42 40 41 41 41 41 42 42 43 41 37 39 38 37 35 35 35 35 34 30 34 38 40 42 43 44 44 48 50 50 51 52 52 52 52 52 52 53 54 53 53 54
49 45 50 50 49 49 50 46 45 44 43 43 42 43 41 41 41 42 43 43 43 41 38 39 36 34 36 32 32 35 33 36 38 40 42 42 43 44 45 47 49 50 51 52 52 52 52 51 51 52 52 53 55 56
46 46 48 49 49 48 48 46 45 46 42 43 42 42 43 44 44 44 43 44 44 41 40 37 38 34 32 29 31 36 39 41 40 41 42 43 45 44 45 46 48 49 51 52 52 51 52 51 50 51 52 53 54 55
48 48 49 49 48 47 43 47 45 40 42 43 44 43 44 44 44 44 45 45 44 45 43 39 35 33 34 36 37 38 38 39 40 40 41 42 44 44 44 48 48 48 49 51 50 50 51 52 51 51 52 53 52 53
50 50 50 49 49 45 43 44 48 47 42 42 42 42 42 43 43 44 44 44 43 43 39 38 38 37 37 38 39 40 40 41 40 40 40 41 43 44 46 48 46 46 47 49 50 47 50 50 50 50 50 50 51 51
48 49 50 49 47 46 43 42 42 45 44 42 43 42 42 43 43 43 42 43 41 42 39 42 41 41 41 41 42 41 41 41 40 41 41 41 43 45 44 45 46 45 45 45 45 45 46 47 49 50 49 49 51 52
47 50 49 48 47 46 45 45 42 44 43 43 43 43 41 43 43 42 43 42 41 44 44 44 43 42 42 41 41 41 42 42 42 42 43 43 44 45 45 45 45 45 44 44 46 45 45 46 48 48 47 48 47 48
48 48 46 49 47 44 42 46 44 43 40 40 42 41 42 42 42 45 41 43 44 48 46 43 43 42 41 43 43 42 43 42 42 42 43 43 45 45 45 45 44 44 43 44 45 45 44 43 45 47 48 48 48 48
48 45 44 46 45 40 43 41 44 43 43 41 41 39 41 43 44 40 37 40 43 45 43 42 42 42 43 42 41 42 43 43 42 42 43 43 43 43 44 44 44 44 44 45 45 44 45 44 43 45 47 47 47 48
43 41 41 35 42 44 41 41 42 42 41 42 42 41 43 44 39 37 35 39 41 42 41 42 42 41 40 41 41 41 43 44 43 43 43 44 44 45 43 43 43 43 44 43 44 45 44 44 44 46 46 47 48 46
38 38 38 41 40 40 41 41 41 42 43 41 41 42 43 40 37 34 37 40 41 42 41 42 42 41 41 41 40 40 41 44 44 43 44 44 45 44 44 43 43 43 45 45 45 43 44 43 44 45 44 46 43 47
36 36 39 43 42 42 43 44 46 43 41 41 40 40 40 37 36 38 41 42 42 44 44 44 44 43 42 42 42 42 43 44 44 45 44 43 43 46 45 44 42 41 42 47 46 44 44 45 45 46 46 45 46 47
42 40 38 39 41 42 40 41 43 41 40 41 38 36 36 37 35 39 43 43 44 43 44 44 44 44 43 42 41 41 41 44 44 44 40 38 39 43 45 46 46 41 44 45 45 42 41 42 44 45 45 44 45 47
41 43 42 40 40 41 43 42 42 43 46 44 41 40 41 42 43 44 44 45 43 41 40 40 40 41 42 42 41 40 41 42 41 40 38 36 36 38 42 44 41 42 43 43 36 37 38 37 43 44 45 45 45 45
40 43 42 41 40 39 40 44 44 46 49 48 46 44 42 43 44 42 41 40 39 38 37 37 37 37 37 37 37 37 39 42 41 39 36 35 35 38 41 40 38 39 40 40 35 36 38 43 42 44 41 40 40 43
42 42 41 40 37 39 42 44 47 47 45 44 45 43 43 45 45 43 39 39 37 35 34 35 35 36 37 36 36 36 35 38 41 41 39 38 39 39 41 42 41 41 39 38 37 35 34 37 41 41 41 40 41 41
41 40 39 37 37 41 48 45 43 43 41 43 43 46 44 42 38 39 41 37 35 34 35 35 34 34 36 37 38 38 36 37 38 41 41 41 41 41 39 41 41 41 40 40 39 38 37 36 37 39 41 42 43 42
41 39 38 37 37 38 45 44 43 43 44 43 44 45 43 42 40 42 45 39 36 34 34 35 35 36 38 37 37 38 37 39 39 36 37 37 38 37 37 40 41 40 39 38 37 37 37 38 38 39 40 41 41 40

GFSWCAN_sfc_dewp_279.txt.gz
Dewpoint
47 48 47 46 46 46 46 46 47 47 47 48 49 50 52 53 53 52 50 52 48 47 44 44 43 42 42 41 39 41 39 40 42 40 41 38 38 38 37 36 35 30 30 28 34 30 25 43 40 38 43 46 47 48
47 46 46 46 46 46 46 46 47 48 48 47 48 50 50 53 53 52 51 51 52 49 44 45 45 45 44 43 42 42 41 42 44 44 45 43 39 39 39 33 41 36 36 38 38 33 45 47 45 42 45 47 48 50
46 46 47 46 46 45 46 47 47 48 48 48 48 49 51 53 53 52 50 52 51 48 43 43 42 45 47 46 44 41 42 42 46 48 47 46 42 40 35 35 39 41 46 45 43 42 43 41 41 40 44 43 45 48
46 46 46 46 46 45 46 47 48 48 49 49 48 50 50 51 52 51 50 52 51 48 43 39 43 44 45 46 46 44 43 44 44 47 45 45 42 41 36 36 36 35 41 40 41 41 39 37 38 42 41 42 43 46
45 46 46 45 45 44 46 47 48 49 50 49 49 51 50 51 52 52 51 50 52 49 44 43 43 43 44 45 45 45 44 43 43 43 46 43 42 42 41 40 37 38 38 37 36 40 41 42 43 42 42 45 46 45
46 46 46 45 45 46 47 48 49 50 50 50 51 52 51 50 50 51 49 52 52 52 46 39 43 43 43 43 43 44 44 44 43 42 41 42 44 44 42 37 39 39 41 40 41 43 43 43 44 44 44 45 46 46
46 46 45 46 47 48 49 49 49 50 51 51 52 52 51 51 50 47 46 50 51 53 47 40 37 40 42 44 47 46 45 44 45 46 45 41 41 47 45 39 40 41 42 44 46 48 46 46 46 47 48 48 49 49
46 46 47 47 48 49 50 50 50 51 51 51 51 50 50 50 49 48 49 50 50 50 48 40 37 39 44 44 44 47 49 49 49 48 46 44 45 45 42 42 43 43 44 45 46 46 47 47 47 46 47 49 49 50
47 47 47 48 48 49 50 51 51 51 51 51 51 51 49 47 47 51 54 52 53 51 45 43 37 36 42 43 45 44 46 44 47 46 46 47 41 41 42 43 42 44 45 46 47 47 48 48 48 47 46 47 48 49
47 48 48 48 48 50 50 51 51 51 50 50 49 47 48 52 52 54 51 49 49 50 48 40 40 39 41 43 45 45 46 44 40 40 43 44 38 40 43 44 45 46 48 48 48 47 48 48 48 49 49 49 49 49
48 48 48 48 48 49 50 50 50 50 50 47 48 48 49 54 50 49 46 44 44 41 43 41 41 41 43 42 44 46 44 42 37 40 41 40 41 45 45 45 45 47 49 50 51 51 51 50 50 50 51 51 52 52
48 48 48 48 49 49 50 50 50 48 47 48 48 48 48 47 45 44 44 44 42 39 43 43 44 44 46 46 46 46 41 42 35 44 40 37 44 45 45 44 44 47 50 50 52 52 51 51 51 51 52 52 52 53
48 48 49 49 49 50 50 50 50 50 49 49 46 46 45 45 38 40 34 40 42 44 45 45 45 47 45 46 45 44 39 37 44 39 37 41 46 43 45 46 46 49 51 51 51 51 51 51 52 52 52 52 51 53
48 49 49 50 50 51 51 51 51 50 47 45 44 36 41 39 40 39 39 39 43 43 43 43 46 45 45 44 43 39 41 42 37 35 36 43 45 46 48 48 48 49 50 50 50 51 51 52 51 52 54 54 53 53
48 49 49 50 51 51 50 51 50 50 46 43 44 37 39 40 42 45 46 45 46 46 46 40 40 45 43 42 42 40 37 36 36 36 41 44 47 48 48 48 48 49 49 50 51 52 52 51 50 52 54 54 54 54
48 49 50 50 50 50 50 50 49 47 46 43 43 41 44 43 44 45 45 44 46 47 41 40 39 40 39 41 39 37 35 35 37 43 42 44 47 49 49 48 48 50 50 51 52 52 51 51 51 53 55 55 55 56
48 46 50 49 49 49 50 48 47 45 43 43 41 44 44 42 41 43 46 47 49 46 43 41 38 35 40 37 36 39 38 38 40 41 43 48 48 49 49 48 49 50 50 51 52 52 52 52 52 52 53 55 55 55
46 46 48 49 49 49 48 47 46 45 42 42 43 42 45 46 44 44 49 50 49 48 46 41 42 38 35 32 35 42 43 43 45 43 45 47 49 49 49 48 50 49 50 51 51 51 51 51 51 51 52 54 55 55
46 48 49 50 49 47 45 46 46 42 42 44 45 46 46 46 49 51 50 50 49 50 47 44 41 40 41 42 42 43 42 42 42 44 46 48 48 48 49 50 50 49 50 51 51 50 50 51 51 51 52 53 53 53
49 50 50 50 49 46 44 43 49 46 43 44 45 44 45 48 49 50 50 49 46 48 45 43 43 44 40 42 43 43 44 45 45 43 45 45 48 49 49 48 46 48 47 50 51 48 50 51 51 51 51 52 53 52
48 49 50 49 47 46 44 43 44 46 46 45 46 45 44 47 49 49 48 49 47 45 44 46 46 47 47 46 46 47 47 46 46 45 47 47 48 49 46 46 47 46 44 45 45 45 45 46 49 50 49 51 52 52
46 49 49 48 46 46 44 44 44 44 46 44 44 45 46 46 48 48 48 46 46 48 47 46 48 47 46 46 46 47 48 47 47 47 45 46 45 46 47 46 45 44 44 45 45 44 45 45 47 47 47 48 48 50
47 48 46 48 46 44 43 49 47 47 44 43 45 45 46 47 47 46 44 48 49 51 49 47 47 47 46 47 47 46 48 48 45 46 47 48 48 46 45 45 45 44 43 44 45 44 44 43 46 46 47 46 47 48
48 46 46 45 44 40 45 46 46 45 44 44 44 42 44 47 48 45 43 45 49 47 46 48 45 44 45 46 43 44 46 47 45 46 46 45 43 44 45 44 44 44 45 45 45 45 44 45 44 45 46 46 45 46
41 41 42 35 44 44 41 42 44 45 43 43 41 41 46 48 44 42 40 44 45 44 43 44 43 42 40 41 42 43 46 44 46 44 45 46 48 46 43 43 43 44 45 43 44 44 44 44 44 44 45 46 46 46
37 41 39 40 40 41 40 41 43 43 44 43 43 45 46 45 39 37 42 44 43 44 42 42 41 41 41 42 42 42 43 44 44 43 44 46 47 45 46 47 41 40 44 47 45 42 43 43 44 44 43 44 43 44
37 36 40 44 43 43 44 45 46 45 43 42 43 42 42 37 36 41 43 44 43 45 44 43 42 41 40 43 44 44 44 45 45 46 45 45 44 44 45 45 42 43 44 48 46 41 40 41 44 44 45 45 45 45
42 41 38 40 41 42 40 41 42 43 43 43 40 38 35 36 35 41 44 46 46 46 45 44 45 43 42 43 43 43 43 43 44 45 44 42 39 42 46 46 47 42 46 45 42 38 37 41 43 43 43 43 44 46
44 44 43 41 41 41 43 43 43 44 48 47 44 42 42 44 45 46 46 45 45 45 44 43 43 44 44 44 44 43 42 41 41 40 39 36 35 37 43 44 44 43 44 43 37 38 42 41 42 43 44 42 41 43
41 44 42 42 42 40 41 44 46 48 51 51 50 50 47 45 46 45 44 44 43 41 41 40 40 39 37 37 37 38 39 40 40 38 37 37 36 37 40 43 40 39 41 41 37 35 38 40 41 42 40 40 41 42
43 43 41 39 38 40 41 44 47 47 47 46 46 45 47 49 46 45 43 44 42 40 38 37 37 37 37 37 37 37 35 38 40 42 42 40 39 41 41 43 41 41 41 40 39 37 36 36 37 38 39 40 40 39
42 41 40 39 40 41 46 47 46 46 43 44 46 49 48 46 41 41 42 41 40 37 38 36 35 34 37 37 38 38 37 37 39 41 43 42 42 42 41 41 41 41 41 40 40 39 38 38 37 36 36 37 40 40
42 41 41 39 37 36 43 46 46 44 46 44 47 47 43 43 42 43 45 41 39 36 36 36 36 36 40 41 39 39 38 39 40 37 38 39 39 40 40 37 40 41 40 39 37 36 36 36 36 37 38 38 39 39

GFSWCAN_sfc_dewp_285.txt.gz
Dewpoint
47 47 47 47 48 47 47 47 48 48 49 49 48 49 51 52 53 51 48 52 48 40 40 40 39 39 38 36 34 41 35 37 35 34 30 29 28 28 30 31 31 29 30 29 30 28 26 40 37 35 45 45 45 45
46 47 47 47 47 47 47 47 48 48 49 50 49 48 50 51 52 52 45 48 51 46 44 44 42 43 43 43 41 38 42 43 42 39 40 35 34 32 34 30 34 31 33 33 38 36 44 43 43 45 42 42 43 45
46 47 47 47 47 47 47 47 48 48 49 50 50 48 51 51 51 50 47 49 48 43 40 40 40 43 43 43 42 42 40 43 45 47 40 37 38 35 31 30 34 35 38 36 38 38 37 38 41 44 44 41 41 42
47 47 47 47 47 46 46 47 48 48 49 50 50 50 51 51 51 50 47 48 48 45 39 39 41 41 44 42 43 43 43 45 44 42 39 37 34 37 33 34 34 34 37 38 39 39 39 39 39 41 41 41 41 42
47 47 47 47 46 46 47 48 49 49 49 50 51 51 52 52 51 50 50 50 52 48 41 37 39 41 42 44 43 44 43 43 41 39 38 36 36 36 36 34 32 32 35 33 36 42 42 42 42 43 43 42 42 42
47 47 46 46 47 48 48 49 50 49 49 50 51 52 52 52 51 48 48 51 52 49 44 36 42 42 43 45 45 45 45 44 42 39 37 36 38 37 36 34 36 35 37 37 39 41 42 43 43 43 43 44 45 46
46 46 46 48 48 48 49 49 50 50 51 51 51 51 51 50 48 46 47 50 51 51 45 36 35 39 42 43 43 42 44 43 41 39 36 36 36 39 36 34 37 36 39 43 43 43 41 41 42 45 45 44 45 45
46 47 47 48 48 48 49 50 51 51 51 51 51 51 51 50 50 48 48 50 51 48 44 39 36 38 42 41 39 42 38 43 42 40 38 37 36 37 37 39 40 41 42 42 42 42 42 44 45 45 47 48 47 47
47 47 48 48 48 48 49 49 50 51 51 51 51 51 50 49 51 51 52 51 51 50 44 40 34 36 38 39 38 39 41 36 43 39 36 38 36 38 39 41 45 44 43 43 41 39 39 42 45 47 47 48 48 48
47 47 48 48 48 49 49 49 50 50 50 50 50 48 48 54 53 52 50 49 48 47 45 41 38 36 36 37 36 38 40 36 35 35 36 35 32 40 39 40 43 43 42 41 39 40 43 46 47 47 47 49 50 50
47 48 48 48 49 49 49 50 51 50 50 49 49 50 52 54 51 49 45 43 42 41 42 40 39 38 41 36 38 40 37 36 34 32 34 30 36 37 38 38 40 41 42 39 42 47 46 46 49 49 50 50 51 51
48 48 48 49 49 49 50 51 51 49 48 47 48 48 50 48 45 40 41 42 41 39 40 39 39 40 42 46 41 43 39 38 31 36 33 34 41 40 38 38 39 39 39 40 43 45 47 49 51 52 52 51 51 51
48 48 48 49 49 50 51 51 52 51 50 49 47 45 43 42 38 35 34 38 41 40 41 41 41 44 44 44 42 43 39 34 36 33 33 33 41 42 43 43 43 42 40 43 46 49 50 51 52 51 50 50 50 52
48 48 49 49 50 51 51 51 51 50 48 44 43 39 39 36 36 36 37 40 41 40 41 41 49 48 45 43 43 38 38 37 34 35 33 32 48 48 47 47 46 42 44 48 49 49 51 49 49 51 52 54 55 55
48 49 49 50 50 50 50 51 51 49 47 43 42 38 36 36 37 39 41 40 40 42 41 47 48 50 45 42 42 40 36 36 36 39 33 38 48 49 49 48 45 44 49 50 49 50 51 50 51 51 52 55 55 55
48 48 49 49 49 50 50 50 50 49 45 43 42 39 38 37 36 37 38 38 43 46 41 43 44 42 42 41 38 35 33 34 31 35 37 40 49 50 49 47 46 49 50 50 51 51 51 51 52 52 53 54 55 54
48 46 48 49 49 49 50 50 50 46 43 41 38 39 37 37 37 37 39 44 47 40 44 47 40 39 43 39 36 35 35 35 35 36 36 49 51 50 49 47 49 50 50 51 50 52 52 52 54 54 52 52 54 54
45 47 48 49 48 49 49 49 46 43 41 40 36 35 35 37 38 39 40 41 43 41 49 44 45 43 39 37 37 45 47 49 41 43 42 46 50 49 48 48 51 50 50 50 51 53 52 53 52 52 54 54 53 53
45 47 48 48 48 47 47 47 46 41 40 38 38 38 38 39 42 43 42 44 44 52 53 50 43 43 45 48 47 45 42 46 42 39 39 47 48 50 50 51 52 51 50 51 53 47 49 52 55 57 55 55 52 53
48 49 49 50 49 46 45 44 48 45 41 40 40 39 40 40 41 42 43 49 52 52 49 44 43 49 51 48 49 51 51 45 39 38 39 46 47 50 51 52 47 50 45 47 44 43 43 45 46 54 52 55 52 52
49 50 51 49 46 46 45 44 43 43 41 40 40 40 40 41 41 43 52 52 50 45 46 49 51 52 48 50 45 45 43 45 43 42 44 47 43 44 43 43 49 45 42 42 42 40 41 44 47 46 48 52 52 53
47 48 49 48 45 45 45 45 44 44 42 40 41 42 42 48 48 51 50 45 45 42 48 52 49 46 46 46 45 48 48 49 50 47 46 49 51 46 48 50 44 42 45 41 40 40 40 43 46 47 45 49 50 51
48 47 46 47 45 43 42 46 45 44 43 44 47 45 47 48 50 46 43 41 40 45 47 49 48 46 45 47 46 46 48 47 43 42 43 43 46 49 41 41 41 41 41 42 43 40 40 41 42 41 45 45 47 51
47 45 45 45 44 39 43 46 45 43 43 42 42 40 43 49 47 47 41 41 41 42 43 48 41 40 40 45 41 40 41 44 47 46 40 39 40 41 41 40 38 39 40 43 41 43 43 40 39 38 40 39 40 43
40 41 43 39 44 43 41 40 40 41 41 44 43 40 45 46 46 41 34 38 37 38 40 40 37 36 37 36 34 38 43 36 36 42 43 37 37 38 40 39 40 36 39 40 41 38 40 43 42 39 37 36 38 38
38 40 39 36 36 37 38 38 40 43 45 43 40 41 43 43 36 33 35 35 36 38 38 36 35 34 34 37 37 38 38 37 37 42 40 36 34 36 36 34 33 34 36 37 35 32 33 39 40 38 37 36 37 34
38 37 39 40 40 41 39 40 41 43 41 39 41 38 39 36 35 37 38 39 38 38 37 36 36 35 34 34 36 36 37 38 38 36 37 37 36 35 36 36 35 35 36 31 31 32 34 36 33 32 33 33 33 33
38 37 36 38 38 38 37 37 37 37 40 43 41 39 36 36 38 39 40 40 38 36 34 35 37 34 34 34 34 33 34 34 36 39 40 39 37 36 38 39 39 41 36 32 34 34 34 33 33 33 32 32 33 35
38 38 37 37 38 37 38 37 36 37 46 41 46 40 40 43 43 43 42 38 34 34 34 33 34 35 35 35 35 33 33 32 35 37 37 33 30 31 35 37 37 38 38 33 36 36 35 34 34 33 34 35 36 38
39 39 39 39 37 36 37 36 37 39 42 42 41 41 44 48 44 44 42 37 34 33 32 33 34 33 31 31 32 32 33 33 32 31 32 31 30 31 33 34 34 34 36 36 34 35 39 38 38 37 34 32 32 34
38 37 38 38 37 37 37 36 36 35 34 34 36 37 40 45 42 44 41 39 35 34 32 32 32 31 31 31 32 32 32 35 38 37 34 32 33 34 35 35 34 34 36 36 34 33 34 34 34 34 32 33 34 34
37 37 36 37 36 37 37 36 35 37 36 34 31 35 40 41 41 43 42 39 36 32 35 33 30 30 32 32 33 32 36 32 33 37 38 35 35 36 36 35 32 32 33 33 34 34 34 34 33 34 34 34 35 35
40 39 38 37 37 38 37 36 36 38 37 34 34 35 37 38 41 47 42 40 38 34 31 31 31 32 38 35 34 35 35 36 42 40 39 38 38 38 36 34 34 35 32 31 31 32 33 34 34 35 35 36 36 35

GFSWCAN_sfc_dewp_291.txt.gz
Dewpoint
47 47 47 47 46 47 46 47 48 50 50 50 51 51 52 53 52 50 49 54 50 48 47 41 38 43 43 44 42 41 41 37 39 37 34 34 32 36 34 38 33 33 34 33 34 35 36 44 44 44 46 46 45 45
47 47 46 46 47 47 46 46 48 50 50 51 51 52 52 53 53 52 49 51 53 50 48 45 42 41 43 44 42 41 41 47 46 45 46 43 39 39 40 33 39 35 39 40 40 40 45 42 44 44 43 44 45 45
46 47 48 48 48 47 47 48 50 51 51 51 51 51 52 53 53 51 48 51 50 50 46 43 39 44 39 40 39 44 47 46 50 49 46 41 37 37 34 33 36 40 39 39 38 42 42 43 44 44 44 44 44 44
46 47 48 48 48 48 49 49 49 50 51 51 51 51 52 52 52 51 47 50 51 50 45 42 40 44 44 41 43 43 44 45 43 46 43 41 38 41 37 36 35 36 38 40 39 44 42 45 45 44 43 44 44 45
46 47 48 48 48 49 48 49 49 50 50 50 51 51 51 52 51 50 49 51 54 50 46 45 41 40 39 43 46 46 42 44 46 45 43 40 42 41 41 38 34 37 38 37 40 44 43 44 44 43 44 44 45 45
47 47 47 48 48 48 49 49 49 50 50 50 51 51 51 51 51 49 51 53 51 52 49 44 45 43 44 46 46 48 47 48 47 44 42 42 41 41 37 36 39 38 44 43 43 43 44 44 44 44 43 44 44 45
48 47 47 48 48 49 49 50 50 50 51 51 51 51 51 51 50 47 48 50 50 51 50 44 43 43 44 47 47 46 46 46 46 44 42 41 40 41 39 36 40 41 44 46 46 46 44 44 42 44 45 46 47 47
47 47 48 48 48 49 50 50 50 50 51 51 51 51 51 51 50 50 51 51 50 50 50 44 43 42 44 44 44 46 44 46 47 43 43 40 41 41 37 40 45 47 47 46 46 44 42 43 43 46 46 45 44 44
47 48 48 48 49 49 50 50 50 51 51 51 51 51 50 50 53 53 53 53 54 51 47 46 44 41 42 44 47 46 47 40 46 42 42 42 40 37 42 46 46 47 46 46 45 43 42 42 43 44 44 45 45 46
48 48 48 49 49 50 50 50 51 51 51 51 50 49 50 54 54 53 52 50 50 50 49 44 47 43 41 42 43 44 44 42 38 40 43 40 38 40 41 44 47 46 46 43 41 42 44 45 46 47 47 47 47 47
48 48 48 49 49 50 50 51 51 51 51 51 51 51 53 53 51 51 46 46 44 43 46 44 46 43 45 42 42 45 42 42 36 38 38 36 37 43 43 44 41 41 42 41 42 42 46 47 47 46 46 47 47 48
48 48 49 49 49 50 50 51 51 50 50 49 47 49 50 49 48 44 42 44 42 41 46 44 45 46 48 49 43 46 41 42 36 42 38 35 40 45 43 41 45 45 44 44 43 46 47 48 48 48 49 49 49 50
48 48 49 49 49 50 51 51 51 52 51 50 49 47 47 46 38 36 33 39 43 45 46 46 44 45 49 47 45 45 41 38 42 38 36 41 49 49 49 47 47 47 46 45 45 48 49 49 50 50 50 51 51 52
48 49 49 50 49 50 50 50 52 51 48 47 45 37 40 37 39 37 39 44 46 47 46 48 48 48 48 45 44 40 42 42 38 37 37 46 49 50 50 50 49 48 47 46 48 49 49 50 50 51 51 51 51 52
49 49 49 48 50 50 50 50 51 50 48 44 45 38 38 40 42 42 44 47 50 49 48 48 48 49 47 44 44 42 40 38 39 40 43 47 50 50 51 51 50 49 48 48 49 49 50 51 51 51 51 52 52 53
48 49 48 50 49 50 49 48 51 51 50 47 44 41 41 40 40 42 43 43 48 48 49 50 47 46 43 45 41 39 37 38 43 47 46 49 48 49 51 51 51 50 50 50 50 50 52 51 51 51 52 53 53 53
48 45 48 49 49 49 50 48 52 48 46 42 41 43 42 41 40 44 47 48 50 47 47 48 42 41 45 42 40 44 42 45 46 48 51 49 49 50 51 51 51 51 51 51 51 52 52 52 53 52 50 53 53 52
44 48 49 49 48 48 50 48 46 44 41 41 40 40 40 41 41 43 42 45 47 48 48 45 48 42 41 37 41 48 50 51 51 51 51 51 53 52 51 51 52 52 52 51 51 51 52 50 51 52 52 52 52 52
45 46 48 49 48 45 46 48 47 42 40 42 43 43 42 41 46 48 45 48 52 50 51 49 44 44 44 48 48 49 51 51 49 49 50 51 52 52 51 51 51 51 51 52 51 49 50 49 50 53 53 52 51 52
48 49 49 50 49 46 44 46 53 46 41 44 43 42 43 45 47 48 48 50 53 50 47 46 46 49 49 52 53 52 49 50 48 44 45 49 50 50 51 50 51 51 50 51 48 45 46 48 48 53 53 51 51 52
48 50 50 49 46 45 44 43 44 45 42 42 43 44 45 46 44 51 50 53 52 48 48 51 51 52 54 53 52 52 51 51 50 50 47 46 50 48 49 49 50 48 46 43 43 43 44 47 48 50 52 51 52 53
49 48 49 49 46 46 44 44 43 45 43 42 42 44 44 46 48 50 51 49 50 50 48 49 51 53 52 52 52 52 53 52 53 51 46 48 50 49 48 49 49 46 45 45 46 44 44 45 44 46 51 52 50 52
48 47 46 47 44 42 41 46 43 44 41 45 50 48 50 51 53 51 50 50 52 52 50 49 51 53 51 52 52 53 53 50 49 47 50 50 48 49 50 49 47 46 45 45 47 44 46 42 45 42 43 50 53 51
48 46 43 43 43 40 43 46 45 44 45 44 42 44 47 49 49 47 43 45 47 49 50 53 48 46 49 52 48 50 50 50 48 48 51 49 49 46 46 45 44 44 46 46 45 47 45 44 41 42 42 40 41 47
41 39 41 37 44 43 40 40 43 42 40 44 41 45 49 48 46 45 41 44 45 46 46 48 46 44 42 43 42 46 51 47 46 45 48 49 48 44 44 44 45 46 44 42 44 44 44 45 42 41 42 39 39 40
36 40 39 39 39 41 41 38 41 43 46 43 43 50 49 46 41 40 42 44 45 45 42 42 43 42 44 44 44 44 45 46 46 44 47 44 42 40 42 41 40 42 43 41 40 40 41 41 40 41 38 38 37 37
37 38 41 42 41 41 39 40 40 43 43 43 46 47 46 42 42 45 47 48 44 44 47 45 46 41 41 42 46 45 44 46 46 48 49 47 46 44 42 41 42 42 37 36 38 38 35 35 37 36 36 39 38 37
38 39 37 40 39 39 37 37 37 38 44 48 46 42 39 39 43 48 48 50 45 45 44 43 48 42 41 44 39 41 44 44 45 46 46 45 44 45 41 39 42 36 41 38 38 39 40 38 37 38 39 38 40 40
40 39 38 38 39 38 38 36 35 37 48 50 47 42 48 51 53 51 53 48 41 41 43 39 39 41 43 42 44 39 38 39 42 44 44 43 39 40 41 37 37 40 40 39 35 37 41 39 40 39 41 41 40 43
39 40 37 36 35 35 36 38 38 42 45 48 46 48 50 53 51 48 47 47 42 36 37 36 38 35 34 34 36 39 39 41 40 41 39 39 39 37 39 40 40 40 42 40 39 39 37 38 38 40 40 42 41 41
39 37 37 36 36 38 39 39 40 40 38 38 40 37 39 51 55 54 51 51 50 39 35 34 34 35 36 36 37 39 38 42 44 48 42 40 38 42 42 42 41 42 42 40 39 40 39 39 39 39 39 41 43 38
37 36 35 35 37 39 40 39 36 37 36 37 36 36 35 39 46 49 49 49 49 41 39 36 35 35 36 38 37 39 37 41 46 46 47 43 45 46 42 43 40 40 39 38 38 38 39 41 39 39 39 41 41 41
38 37 37 35 35 36 36 36 37 37 37 36 37 37 38 35 39 47 49 48 46 44 40 37 36 36 44 42 41 40 39 42 42 36 36 37 36 39 41 40 42 41 39 38 36 36 39 41 39 42 41 41 41 41